www.pogodaiklimat.ru

Погода и климат >> Архив погоды >> Россия >> Иркутская область >> Черемхово


ПОГОДА в Черемхово

  • Прогноз погоды в Черемхово
  • Монитор погоды в Черемхово
  • Климат города

АРХИВ ПОГОДЫ в Черемхово

Время (UTC), дата Ветер
(напр.,м/с)
 
Видим.   Явления Облачность Т
(С)
Тd
(С)
f
(%)
Тe
(С)
Тes
(С)
Комфортность P
(гПа)
Po
(гПа)
Тmin
(С)
Tmax
(С)
R
(мм)
R24
(мм)
S
(см)
00 17.05 ЮЗ 1
{13}
50 км 7 баллов +7.8 +1.2 63 +7 +9 1014.5 944.0 +1.6
03 17.05 Ю 3 50 км 10/0
[Ci sp]
+13.6 +0.3 40 +13 +21 1009.6 940.9
06 17.05 ЮЗ 1 50 км 10 баллов +18.4 -5.0 20 +20 +20 1006.3 938.7
09 17.05 ЮВ 4 50 км 10/1 600 м
[Cu med, cong Ci sp]
+20.1 -2.8 21 +20 +24 1002.6 935.7
12 17.05 В 2
{9}
50 км 9 баллов +18.9 +0.9 30 +20 +20 1003.2 936.0 +20.7
15 17.05 В 4 н/о 4/0
[Ci fib]
+13.2 -1.6 36 +12 +12 1002.7 934.2
18 17.05 ЮВ 4 н/о 2 балла +12.0 -4.2 32 +10 +10 1002.0 933.3
21 17.05 СЗ 4 10 км 3/0
[Ci sp]
+7.4 -1.1 55 +4 +4 1002.6 932.8
00 18.05 СЗ 6
{14}
50 км 2 балла +7.3 +0.3 61 +3 +5 1007.5 937.3 +5.8
03 18.05 СЗ 7
{14}
50 км 5 баллов +10.3 -0.2 48 +7 +9 1009.6 940.0
06 18.05 СЗ 7
{14}
50 км 10 баллов +11.6 +0.1 45 +9 +9 1010.7 941.3
09 18.05 С 6
{11}
20 км 9/9 600 м
[Cb cap]
+8.2 -0.6 54 +5 +5 1011.9 941.7
12 18.05 СЗ 3
{14}
20 км 9 баллов +8.0 -1.5 51 +6 +6 1013.1 942.7 +12.0 0.0
15 18.05 СЗ 2 н/о 10/10 600 м
[Cb cap]
+6.5 -2.1 54 +5 +5 1012.2 941.6
18 18.05 СЗ 3
{10}
н/о ливневой дождь 10 баллов +1.5 +0.3 92 -3 -3 1016.2 944.0
21 18.05 С 3 10 км {ливн. осадки} 10/10 600 м
[Cb cap]
+1.4 +0.6 94 -3 -3 1016.4 944.2
00 19.05 СЗ 1
{10}
20 км 10 баллов +3.3 +1.2 86 +2 +2 1018.6 946.7 +1.2 5
03 19.05 В 2 50 км 8/8 600 м
[Cb cap]
+7.0 -0.1 61 +5 +8 1016.1 945.3
06 19.05 В 4 50 км 7 баллов +8.9 +0.6 56 +6 +9 1014.3 944.0
09 19.05 ЮВ 4
{10}
50 км 6/3 600 м
[Cb cap Cs]
+12.2 +1.3 47 +11 +14 1009.6 940.5
12 19.05 ЮВ 4
{10}
20 км 10 баллов +10.8 +1.6 53 +9 +9 1009.5 940.0 +12.4
15 19.05 ЮВ 6 н/о 9/9 600 м
[Cb cap]
+8.8 +2.1 63 +5 +5 1006.8 937.1
18 19.05 ЮВ 7
{12}
н/о 6 баллов +8.0 +0.2 58 +4 +4 1004.5 934.7
21 19.05 СЗ 7
{15}
10 км 10 баллов +2.8 -0.1 81 -3 -3 1010.2 938.7
00 20.05 СЗ 7 50 км в посл. час ливневой снег 9 баллов +1.3 -0.6 87 -5 -5 1014.9 942.7 +0.3 0.5
03 20.05 СЗ 5
{17}
1000 м ливневой снег 10 баллов +0.7 -1.2 87 -5 -5 1019.4 946.7 -0.1
06 20.05 СЗ 6
{17}
50 км 10 баллов +4.6 -6.3 45 0 0 1021.2 949.3
09 20.05 СЗ 4
{15}
50 км 9/9 600 м
[Cb cap]
+5.7 -6.8 40 +3 +3 1020.8 949.2
12 20.05 СЗ 2
{17}
50 км 9 баллов +4.9 -6.3 44 +3 +3 1022.6 950.7 +5.8 0.5
15 20.05 ЮЗ 1 н/о 9/9 600 м
[Cb cap]
+2.1 -2.6 71 +1 +1 1022.7 950.2
18 20.05 З 2 н/о 2 балла -0.2 -3.6 78 -4 -4 1025.3 952.0
21 20.05 З 2 10 км 8/6 600 м
[Cb cap Ac trans]
-2.2 -4.6 84 -6 -6 1024.3 950.5
00 21.05 З 2
{5}
50 км 7 баллов +2.4 -4.8 59 -0 +1 1024.6 952.0 -2.8
03 21.05 З 4
{11}
50 км в посл. час ливневой снег 7 баллов +5.9 -5.4 44 +3 +5 1022.3 950.7
06 21.05 З 3
{10}
20 км в посл. час крупа 9 баллов +6.4 -5.3 43 +4 +5 1019.3 948.0
09 21.05 СЗ 4
{14}
10 км в посл. час ливневой снег 10 баллов +2.1 -0.8 81 -3 -3 1020.4 948.0
12 21.05 З 4
{14}
50 км 7 баллов +2.3 -1.3 77 -2 -2 1020.3 948.0 +7.5 0.5
15 21.05 З 2 н/о {ливн. осадки} 8/8 300 м
[Cb cap]
-0.2 -1.0 94 -4 -4 1019.2 946.4
18 21.05 З 2 н/о 9 баллов +1.0 -0.5 90 -3 -3 1017.8 945.3
21 21.05 З 2 10 км 8/8 600 м
[Cb cap]
-1.2 -3.5 84 -5 -5 1015.2 942.4
00 22.05 З 2
{8}
50 км 6 баллов +5.2 -3.3 54 +3 +5 1012.4 941.3 -1.6 0.1
03 22.05 З 3 50 км 10/3 600 м
[Cb cap Ac trans Ci fib]
+11.0 -4.8 33 +10 +14 1006.1 936.9
06 22.05 З 3 10 км 10 баллов +9.8 -2.2 43 +8 +8 1005.5 936.0
09 22.05 З 2 10 км слабый ливневой дождь 10/10 300 м
[Cb cap]
+7.9 +5.8 87 +6 +6 1002.3 932.8
12 22.05 З 3
{9}
4000 м ливневой дождь 10 баллов +8.4 +7.2 92 +6 +6 1002.8 933.3 +11.5 3
15 22.05 З 2 н/о в посл. час ливневой дождь 8/6 600 м
[Cb cap Ac trans]
+8.1 +6.9 92 +6 +6 1000.4 931.1
18 22.05 СЗ 2 н/о слабый ливневой дождь 10 баллов +9.8 +7.1 83 +8 +8 999.6 930.7
21 22.05 ЮЗ 1 10 км {ливн. осадки} 10/10 600 м
[Cb cap]
+8.1 +6.8 91 +7 +7 996.9 927.8
00 23.05 Ю 2
{7}
20 км 10 баллов +10.1 +7.3 83 +9 +9 996.7 928.0 +7.8 2
03 23.05 Ю 3 50 км 8/5 600 м
[Cb cap Ac trans]
+16.5 +7.4 55 +16 +20 992.2 925.3
06 23.05 С 5
{10}
50 км 9 баллов +19.1 +7.8 48 +19 +20 993.1 926.7
09 23.05 С 7
{10}
50 км 7 баллов +18.5 +7.6 49 +18 +19 993.2 926.7
12 23.05 С 3
{10}
50 км 9 баллов +14.0 +6.4 60 +13 +13 995.7 928.0 +19.8
15 23.05 штиль 0 н/о 6/4 600 м
[Cb cap Ci sp]
+7.8 +5.5 85 +7 +7 996.2 927.1
18 23.05 В 3 н/о слабый ливневой дождь 10 баллов +8.5 +6.6 88 +6 +6 997.1 928.0
21 23.05 В 3 10 км {ливн. осадки} 8/5 600 м
[Cb cap Ac trans]
+7.7 +6.4 91 +5 +5 995.7 926.6

 

Местоположение метеостанции Черемхово (Иркутская область, Россия): широта 53.18 долгота 103.00 высота над уровнем моря 598 м.

В архиве по умолчанию представлена погода в Черемхово за последнюю неделю. Архивные данные за месяц целиком и за предыдущие месяцы, начиная с января 2011 года, Вы можете получить, выбрав интересующий диапазон дат из раскрывающегося списка и нажав кнопку "Ввод!".


*Определитесь, кто Вы:
робот инопланетянин человек

Внимание! Время в таблицах - всемирное. Для получения местного времени необходимо прибавить поправку, которая в Черемхово равна 8 ч.

Смотрите также архив погоды в соседних городах и на ближайших метеорологических станциях:

Погода в Заларях (Иркутская область, Россия) (53 км)
Погода в Инге (Иркутская область, Россия) (77 км)
Погода в Балаганске (Иркутская область, Россия) (91 км)
Погода в Ангарск (Иркутская область, Россия) (95 км)
Погода в Зиме (Иркутская область, Россия) (106 км)
Погода в Хомутово (Иркутская область, Россия) (119 км)
Погода в Усть-Ордынском (Иркутская область, Россия) (121 км)
Погода в Сараме (Иркутская область, Россия) (121 км)
Погода в Дабадах (Иркутская область, Россия) (122 км)
Погода в Иркутске (Иркутская область, Россия) (134 км)

Пояснения к столбцам:

Ветер - указаны скорость ветра в м/с - средняя за 10 мин, порывы в срок и между сроками (в фигурных скобках) и направление, откуда дует ветер: С - северный, СВ - северо-восточный, В - восточный, ЮВ - юго-восточный, Ю - южный, ЮЗ - юго-западный, З - западный, СЗ - северо-западный.
Видимость - горизонтальная дальность видимости в метрах или километрах. При видимости от 1 до 10 км при отсутствии осадков обычно наблюдается дымка, при ухудшении видимости до 1 км и менее - туман. В сухую погоду видимость может ухудшаться дымом, пылью или мглою.
Явления - указаны атмосферные явления, наблюдавшиеся в срок или в последний час перед сроком; фигурными скобками обозначены явления, наблюдавшиеся между сроками (за 1-3 часа до срока); квадратными скобками обозначены град или гололедные отложения с указанием их диаметра в мм.
Облачность - указаны через наклонную черту общая и нижняя облачность в баллах и высота нижней границы облаков в метрах; квадратными скобками обозначены формы облаков: Ci - перистые, Cs - перисто-слоистые, Cc - перисто-кучевые, Ac - высококучевые, As - высокослоистые, Sc - слоисто-кучевые, Ns - слоисто-дождевые, Cu - кучевые, Cb - кучево-дождевые. Подробнее классификацию облаков см. в Атласе облаков (PDF).
T - Температура воздуха - температура, измеренная на высоте 2 м над землей.
Td - Температура точки росы - температура, при понижении до которой содержащийся в воздухе водяной пар достигнет насыщения.
f - Относительная влажность воздуха - влажноcть воздуха, измеренная на высоте 2 м над землей.
Te - Эффективная температура - температура, которую ощущает одетый по сезону человек в тени. Характеристика душности погоды. При расчете учитывается влияние влажности воздуха и скорости ветра на теплоощущения человека.
Tes - Эффективная температура на солнце - температура, которую ощущает человек, с поправкой на солнечный нагрев. Характеристика знойности погоды. Зависит от высоты солнца над горизонтом, облачности и скорости ветра. Ночью, в пасмурную погоду, а также при ветре 12 м/с и более поправка равна нулю.
P - Атмосферное давление - приведенное к уровню моря атмосферное давление.
Po - Атмосферное давление - измеренное на уровне метеостанции атмосферное давление.
Tmin - Минимальная температура - минимум температуры воздуха на высоте 2 м над землей.
Tmax - Максимальная температура - максимум температуры воздуха на высоте 2 м над землей.
R - Количество осадков - Количество выпавших осадков за период времени, мм. При наведении курсора мыши на число - период времени, за который выпало указанное количество осадков.
R24 - Количество осадков - Количество выпавших осадков за 24 часа, мм.
S - Снежный покров - Высота снежного покрова, см. При наведении курсора мыши на число - состояние снежного покрова и степень покрытия местности в баллах.